CAPE
0 0 0 0 0 0 0 0 0 0 0 0 0 0 0 0 0 0 0 0 0 0 0 0 0 0 0 0 0 0 0 0 0 0 0 0 0 0 0 0 0 0 0
0 0 0 0 0 0 0 0 0 0 0 0 0 0 0 0 0 0 0 0 0 0 0 0 0 0 0 0 0 0 0 0 0 0 0 0 0 0 0 0 0 0 0
0 0 0 0 0 0 0 0 0 0 0 0 0 0 0 0 0 0 0 0 0 0 0 0 0 0 0 0 0 0 0 0 0 0 0 0 0 0 0 0 0 0 0
0 0 0 0 0 0 0 0 0 0 0 0 0 0 0 0 0 0 0 0 0 0 0 0 0 0 0 0 0 0 0 0 0 0 0 0 0 0 0 0 0 0 0
0 0 0 0 0 0 0 0 0 0 0 0 0 0 0 0 0 0 0 0 0 0 0 0 0 0 0 0 0 0 0 0 0 0 0 0 0 0 0 0 0 0 0
0 0 0 0 0 0 0 0 0 0 0 0 0 0 0 0 0 0 0 0 0 0 0 0 0 0 0 0 0 0 0 0 0 0 0 0 0 0 0 0 0 0 0
0 0 0 0 0 0 0 0 0 0 0 0 0 0 0 0 0 0 0 0 0 0 0 0 0 0 0 0 0 0 0 0 0 0 0 0 0 0 0 0 0 0 0
0 0 0 0 0 0 0 0 0 0 0 0 0 0 0 0 0 0 0 0 0 0 0 0 0 0 0 0 0 0 0 0 0 0 0 0 0 0 0 0 0 0 0
0 0 0 0 0 0 0 0 0 0 0 0 0 0 0 0 0 0 0 0 0 0 0 0 0 0 0 0 0 0 0 0 0 0 0 0 0 0 0 0 0 0 0
0 0 0 0 0 0 0 0 0 0 0 0 0 0 0 0 0 0 0 0 0 0 0 0 0 0 0 0 0 0 0 0 0 0 0 0 0 0 0 0 0 0 0
0 0 0 0 0 0 0 0 0 0 0 0 0 0 0 0 0 0 0 0 0 0 0 0 0 0 0 0 0 0 0 0 0 0 0 0 0 0 0 0 0 0 0
0 0 0 0 0 0 0 0 0 0 0 0 0 0 0 0 0 0 0 1 0 0 0 0 0 0 0 0 1 0 0 0 0 0 0 0 0 0 0 0 0 0 0
0 0 0 0 0 0 0 0 0 0 0 0 0 0 0 0 0 0 0 0 0 0 0 0 0 0 0 0 0 0 0 0 0 0 0 0 0 0 0 0 0 0 0
0 0 0 0 0 0 0 0 0 0 0 0 0 0 0 0 0 0 0 0 0 0 0 0 0 0 0 0 0 0 0 0 0 0 0 0 0 0 0 0 0 0 0
0 0 0 0 0 0 0 0 0 0 0 0 0 0 0 0 0 0 0 0 0 0 0 0 0 0 0 0 0 0 0 0 0 0 0 0 0 0 0 0 0 0 0
0 0 0 0 0 0 0 0 0 0 0 0 0 0 0 0 0 0 0 0 0 0 0 0 0 0 0 0 0 0 0 0 0 0 0 0 0 0 0 0 0 0 0
0 0 0 0 0 0 0 0 0 0 0 0 0 0 1 0 0 0 0 0 0 6 0 0 0 0 0 0 0 0 0 0 0 0 0 0 0 0 0 0 0 0 0
0 0 0 0 0 0 0 0 0 0 0 0 0 0 1 0 0 1 0 1 0 3 0 0 0 0 0 0 0 0 0 0 0 0 0 0 0 0 0 0 0 0 0
0 0 0 0 0 0 0 0 0 0 0 0 0 0 0 0 0 1 3 0 0 0 0 0 0 0 0 0 0 0 0 0 0 0 0 0 0 0 0 0 0 0 0
0 0 0 0 0 0 0 0 0 0 0 0 0 0 0 0 2 0 1 0 0 0 0 0 0 0 0 0 0 0 0 0 0 0 0 0 0 0 0 0 0 0 0
0 0 0 0 0 0 0 0 0 0 0 0 0 0 0 0 0 0 0 0 0 0 0 0 0 0 0 0 0 0 0 0 0 0 0 0 0 0 0 0 0 0 0
0 0 0 0 0 0 0 0 0 0 0 0 0 0 0 0 0 0 0 0 0 0 0 0 0 0 0 0 0 0 0 0 0 0 0 0 0 0 0 0 0 0 0
0 0 0 0 0 0 0 0 1 3 2 0 0 0 0 0 0 0 0 0 0 0 0 0 0 0 0 0 0 0 0 0 0 0 0 0 0 0 0 0 0 0 0
0 0 0 0 0 0 0 0 0 0 0 0 0 0 0 0 0 0 0 0 0 0 0 0 0 0 0 0 0 0 0 0 0 0 0 0 0 0 0 0 0 0 0
0 0 0 0 0 0 0 0 0 0 0 0 0 0 0 0 0 0 0 0 0 0 0 0 0 0 0 0 0 0 0 0 0 0 0 0 0 0 0 0 0 0 0
0 0 0 0 0 0 0 0 0 0 0 0 0 0 0 0 0 0 0 0 0 0 0 0 0 0 0 0 0 0 0 0 0 0 0 0 0 0 0 0 0 0 0
CIN
0 0 0 0 0 0 0 0 0 0 0 0 0 0 0 0 0 0 0 0 0 0 0 0 0 0 0 0 0 0 0 0 0 0 0 0 0 0 0 0 0 0 0
0 0 0 0 0 0 0 0 0 0 0 0 0 0 0 0 0 0 0 0 0 0 0 0 0 0 0 0 0 0 0 0 0 0 0 0 0 0 0 0 0 0 0
0 0 0 0 0 0 0 0 0 0 0 0 0 0 0 0 0 0 0 0 0 0 0 0 0 0 0 0 0 0 0 0 0 0 0 0 0 0 0 0 0 0 0
0 0 0 0 0 0 0 0 0 0 0 0 0 0 0 0 0 0 0 0 0 0 0 0 0 0 0 0 0 0 0 0 0 0 0 0 0 0 0 0 0 0 0
0 0 0 0 0 0 0 0 0 0 0 0 0 0 0 0 0 0 0 0 0 0 0 0 0 0 0 0 0 0 0 0 0 0 0 0 0 0 0 0 0 0 0
0 0 0 0 0 0 0 0 0 0 0 0 0 0 0 0 0 0 0 0 0 0 0 0 0 0 0 0 0 0 0 0 0 0 0 0 0 0 0 0 0 0 0
0 0 0 0 0 0 0 0 0 0 0 0 0 0 0 0 0 0 0 0 0 0 0 0 0 0 0 0 0 0 0 0 0 0 0 0 0 0 0 0 0 0 0
0 0 0 0 0 0 0 0 0 0 0 0 0 0 0 0 0 0 0 0 0 0 0 0 0 0 0 0 0 0 0 0 0 0 0 0 0 0 0 0 0 0 0
0 0 0 0 0 0 0 0 0 0 0 0 0 0 0 0 0 0 0 0 0 0 0 0 0 0 0 0 0 0 0 0 0 0 0 0 0 0 0 0 0 0 0
0 0 0 0 0 0 0 0 0 0 0 0 0 0 0 0 0 0 0 0 0 0 0 0 0 0 0 0 0 0 0 0 0 0 0 0 0 0 0 0 0 0 0
0 0 0 0 0 0 0 0 0 0 0 0 0 0 0 0 0 0 0 0 0 0 0 0 0 0 0 0 0 0 0 0 0 0 0 0 0 0 0 0 0 0 0
0 0 0 0 0 0 0 0 0 0 0 0 0 0 0 0 0 0 0 0 0 0 0 0 0 0 0 0 0 0 0 0 0 0 0 0 0 0 0 0 0 0 0
0 0 0 0 0 0 0 0 0 0 0 0 0 0 0 0 0 0 0 0 0 0 0 0 0 0 0 -1 -1 0 0 0 0 0 0 0 0 0 0 0 0 0 0
0 0 0 0 0 0 0 0 0 0 0 0 0 0 0 0 0 0 0 0 0 0 0 0 0 0 0 0 0 0 0 0 0 0 0 0 0 0 0 0 0 0 0
0 0 0 0 0 0 0 0 0 0 0 0 0 0 0 0 0 0 0 0 0 0 0 0 0 0 0 0 0 0 0 0 0 0 0 0 0 0 0 0 0 0 0
0 0 0 0 0 0 0 0 0 0 0 0 0 0 0 0 0 0 0 0 0 0 0 0 0 0 0 0 0 0 0 0 0 0 0 0 0 0 0 0 0 0 0
0 0 0 0 0 0 0 0 0 0 0 0 0 0 0 0 0 0 0 0 0 0 0 0 0 0 0 0 0 0 0 0 0 0 0 0 0 0 0 0 0 0 0
0 0 0 0 0 0 0 0 0 0 0 0 0 0 0 -1 0 0 0 0 0 0 -2 0 0 0 0 0 0 0 0 0 0 0 0 0 0 0 0 0 0 0 0
0 0 0 0 0 0 0 0 0 0 0 0 0 0 0 0 0 0 0 0 0 0 -1 0 0 0 0 0 0 0 0 0 0 0 0 0 0 0 0 0 0 0 0
0 0 0 0 0 0 0 0 0 0 0 0 0 0 0 0 0 0 0 0 0 0 0 0 0 0 0 0 0 0 0 0 0 0 0 0 0 0 0 0 0 0 0
0 0 0 0 0 0 0 0 0 0 0 0 0 0 0 0 0 0 0 0 0 0 0 0 0 0 0 0 0 0 0 0 0 0 0 0 0 0 0 0 0 0 0
0 0 0 0 0 0 0 0 0 0 0 0 0 0 0 0 0 0 0 0 0 0 0 0 0 0 0 0 0 0 0 0 0 0 0 0 0 0 0 0 0 0 0
0 0 0 0 0 0 0 0 0 0 0 0 0 0 0 0 0 0 0 0 0 0 0 0 0 0 0 0 0 0 0 0 0 0 0 0 0 0 0 0 0 0 0
0 0 0 0 0 0 0 0 0 0 0 0 0 0 0 0 0 0 0 0 0 0 0 0 0 0 0 0 0 0 0 0 0 0 0 0 0 0 0 0 0 0 0
0 0 0 0 0 0 0 0 0 0 0 0 0 0 0 0 0 0 0 0 0 0 0 0 0 0 0 0 0 0 0 0 0 0 0 0 0 0 0 0 0 0 0
0 0 0 0 0 0 0 0 0 0 0 0 0 0 0 0 0 0 0 0 0 0 0 0 0 0 0 0 0 0 0 0 0 0 0 0 0 0 0 0 0 0 0
Wind_Speed
11 9 8 6 6 5 5 4 5 7 9 10 11 13 15 17 18 19 21 22 24 25 26 27 29 29 29 29 28 27 27 28 28 23 20 17 15 14 15 17 19 19 19
10 8 7 7 6 5 4 4 5 7 9 10 12 13 15 16 18 19 20 21 23 25 26 28 28 27 27 27 27 27 26 25 20 17 16 14 12 10 11 13 16 18 11
8 7 6 5 5 4 4 5 7 8 10 10 12 13 14 16 17 18 20 22 23 24 25 26 26 24 25 26 25 25 22 21 19 18 18 15 14 14 11 11 12 13 12
6 6 5 5 4 4 5 6 7 8 9 10 12 13 14 15 16 18 20 21 23 23 24 25 25 24 24 24 24 23 22 23 21 19 16 15 14 14 15 15 15 17 18
5 5 5 5 5 6 6 7 8 9 10 10 11 12 14 14 15 17 19 21 22 23 24 25 24 22 23 22 22 22 22 21 18 16 15 14 14 16 16 17 16 17 18
6 6 6 6 5 7 6 7 9 11 11 11 11 11 12 14 16 17 19 21 22 22 23 23 23 22 23 23 22 22 20 18 15 15 15 14 16 16 17 18 20 22 23
7 7 6 6 5 5 7 9 11 11 10 11 10 12 14 16 16 16 18 21 22 22 22 22 21 21 20 21 22 22 21 19 15 14 15 15 17 17 18 20 21 22 22
7 7 7 7 7 7 9 10 11 11 10 11 13 13 14 15 16 17 18 22 22 22 21 21 21 20 19 19 21 21 19 16 16 16 16 16 17 18 19 20 22 23 23
8 9 9 8 7 8 10 10 12 12 13 13 14 14 15 17 17 18 18 21 22 23 22 21 18 17 18 17 18 18 16 14 15 16 16 17 17 19 20 22 25 28 28
9 9 8 8 8 10 12 12 13 14 15 15 16 16 17 20 19 18 18 21 25 24 23 20 15 16 16 15 16 16 14 11 10 14 15 17 19 20 22 23 24 27 28
9 8 9 9 11 12 13 15 17 17 18 18 19 20 20 20 20 19 19 21 23 25 23 18 15 14 16 15 15 15 14 12 10 11 14 18 19 20 22 22 23 24 26
8 9 10 11 12 14 18 21 21 21 20 20 21 22 22 21 21 20 20 21 22 23 20 16 15 14 15 15 15 14 14 12 12 13 13 16 19 21 22 22 23 23 23
10 12 14 15 17 18 20 22 23 21 22 23 24 25 25 23 22 22 22 22 19 19 18 15 14 14 14 14 14 15 14 12 13 13 15 16 17 20 21 23 24 24 25
14 16 17 19 21 22 21 21 22 22 24 25 25 26 26 25 24 24 23 20 16 15 16 16 15 14 12 14 13 14 13 11 12 14 16 17 18 19 20 22 25 26 29
18 19 20 21 22 24 24 24 23 24 23 25 25 26 27 28 27 24 20 17 16 16 17 17 17 16 15 15 14 14 13 13 13 14 17 18 19 20 21 21 24 26 28
22 24 26 26 27 27 27 26 25 24 24 24 25 25 26 26 24 21 17 16 16 15 17 18 17 17 17 17 17 16 15 14 13 15 17 18 19 20 21 22 23 25 28
27 28 29 29 28 30 29 29 30 29 27 25 25 25 22 20 18 18 19 18 15 13 17 18 19 19 20 19 18 17 16 14 14 15 16 18 18 20 21 22 23 25 28
28 28 28 28 28 30 30 31 31 32 32 29 25 20 17 15 16 16 17 17 17 15 17 19 19 19 19 19 17 16 15 14 14 15 16 17 17 19 21 21 22 25 28
28 28 29 29 29 30 31 31 30 29 30 29 32 25 19 18 16 14 12 16 18 18 18 18 18 17 16 15 16 15 13 12 12 14 16 16 17 17 19 21 22 24 27
27 27 28 29 29 30 28 28 28 25 27 26 22 21 20 20 20 20 18 16 18 19 19 17 16 15 15 15 15 13 12 11 12 13 14 15 16 17 19 20 22 24 26
26 27 27 28 27 26 25 24 25 25 22 20 18 18 22 22 23 23 22 21 20 19 18 15 15 14 14 14 13 13 12 12 12 12 13 14 15 17 18 20 21 23 25
26 26 25 24 23 25 23 23 23 22 20 21 22 23 25 25 26 26 24 23 20 18 17 15 14 13 13 12 12 12 12 12 12 12 13 14 15 17 18 20 21 23 25
24 24 24 26 27 27 26 24 24 24 24 26 28 29 29 29 27 27 25 22 19 17 16 15 15 15 14 13 12 12 12 12 12 12 13 13 15 16 17 19 21 22 23
24 26 28 28 29 28 27 28 28 29 30 31 30 30 30 29 28 26 25 24 23 20 17 16 16 16 16 15 14 13 13 13 12 12 11 13 15 15 17 18 19 20 22
27 28 29 30 30 30 30 30 31 31 31 31 31 32 31 30 30 28 28 26 24 22 20 18 18 18 17 17 16 15 14 14 13 12 12 13 14 14 15 16 17 19 20
28 28 29 29 30 31 32 33 33 34 34 34 33 33 32 31 30 28 29 28 27 26 24 22 21 20 20 19 18 17 16 14 14 13 13 13 14 14 15 16 16 19 20
Wind_Direction
303 304 301 298 302 309 314 325 338 347 349 350 356 358 359 0 1 2 1 2 2 2 3 2 1 1 0 3 4 5 4 1 358 6 15 22 26 30 24 21 18 21 16
304 302 299 302 302 303 311 325 335 338 345 348 350 352 356 358 356 358 1 1 1 1 0 0 360 2 5 7 7 7 7 9 13 14 21 27 33 44 46 42 36 31 49
300 297 295 291 287 290 301 318 329 334 335 343 344 348 351 352 354 357 360 359 360 359 359 359 360 3 4 5 7 8 13 16 18 21 23 32 41 46 62 63 50 40 36
288 283 273 268 268 285 305 317 328 333 335 337 338 341 346 350 353 356 357 357 357 357 358 358 359 360 358 1 3 6 9 9 13 21 35 47 52 49 41 37 32 24 20
275 270 263 271 282 295 306 318 323 325 325 328 333 335 340 348 350 352 351 352 353 354 355 356 357 359 356 359 3 4 5 7 16 22 31 37 35 28 27 26 23 18 17
267 265 273 267 273 291 303 315 316 319 321 323 324 329 336 340 343 345 348 347 348 349 349 352 356 357 355 360 6 8 8 8 15 16 19 21 20 21 21 18 14 11 9
259 260 246 246 259 283 302 310 312 312 314 315 315 322 327 333 338 342 343 344 344 344 344 346 349 350 349 352 359 3 8 10 10 8 7 10 11 13 13 10 8 7 4
249 237 232 247 268 285 301 306 310 310 306 307 309 314 321 325 330 333 337 340 340 340 340 340 341 343 341 345 349 354 1 7 4 2 3 4 6 8 7 6 4 1 359
232 232 237 242 255 277 297 302 309 308 306 302 306 306 308 316 322 324 330 335 335 335 335 335 337 339 337 340 343 347 353 1 3 3 3 3 4 3 3 360 356 355 355
244 233 238 243 260 283 296 303 309 306 299 299 298 300 305 311 314 317 321 328 329 331 331 331 332 335 337 335 337 341 339 343 352 350 352 355 353 354 355 355 355 353 353
278 264 264 268 277 284 293 302 307 305 304 301 299 301 303 307 310 311 313 321 324 326 326 327 328 331 334 333 332 331 330 335 336 341 340 341 344 346 348 350 352 352 351
288 280 278 280 285 293 298 303 305 304 301 299 298 300 301 304 306 308 309 312 321 322 323 324 325 326 330 330 329 330 333 332 333 334 336 336 336 338 342 345 347 348 349
304 299 298 298 299 300 301 303 305 303 302 302 301 301 303 305 306 306 307 310 312 319 323 319 320 321 322 326 329 328 328 325 326 325 328 333 338 340 342 343 344 346 346
311 307 306 306 306 306 307 308 306 304 304 304 305 304 306 307 307 307 308 309 302 305 315 318 321 319 317 320 320 326 328 319 316 320 325 331 337 339 340 343 343 344 345
317 315 313 313 312 311 311 310 307 309 306 305 305 306 308 308 309 309 306 303 301 304 312 316 317 318 315 318 316 315 314 314 310 317 322 326 331 334 337 341 342 343 343
317 316 315 315 315 314 313 312 312 311 309 307 310 309 310 310 316 314 307 301 302 299 309 308 306 306 305 308 308 307 305 300 300 309 316 321 324 328 332 337 340 340 340
316 316 316 317 317 315 314 312 311 314 311 311 311 310 312 315 315 314 316 313 302 297 303 304 304 305 305 306 305 303 298 293 299 303 309 315 321 325 329 332 335 337 338
321 321 321 321 319 317 316 314 313 313 313 315 317 315 314 309 309 311 316 318 314 297 301 304 305 308 308 306 304 301 298 295 293 298 305 311 316 322 326 329 332 334 337
327 326 326 324 323 321 319 317 316 315 314 315 312 321 323 320 315 311 307 313 313 310 304 306 307 308 307 308 307 302 294 283 280 293 301 307 313 319 321 326 329 332 336
333 333 332 330 329 328 327 325 324 324 319 320 326 327 331 332 327 324 317 309 311 311 311 306 307 308 307 306 307 305 295 283 280 285 293 303 310 315 318 323 327 330 333
337 338 338 337 337 336 335 335 331 331 334 336 336 335 332 329 326 324 321 314 309 310 310 305 306 305 305 306 305 300 293 286 282 283 290 297 306 310 316 322 326 328 331
339 340 342 346 347 341 343 340 339 340 339 336 334 332 330 328 326 324 320 318 314 310 308 303 302 300 300 298 296 295 289 284 286 288 292 296 303 309 316 321 324 327 331
340 343 344 334 333 334 336 340 339 337 334 332 329 327 327 325 325 324 323 321 317 311 309 306 304 303 304 300 296 288 286 282 284 292 293 297 303 309 315 319 324 328 331
338 332 325 327 328 330 332 332 331 330 328 327 327 327 327 326 325 325 325 324 322 317 312 306 303 301 303 302 299 292 286 289 295 294 295 302 307 312 317 321 324 328 332
326 325 326 326 327 327 327 328 329 329 329 329 329 328 328 328 327 326 325 324 323 321 315 310 307 304 300 298 298 294 289 285 288 295 297 302 307 311 316 321 327 330 334
326 329 329 329 328 328 328 327 327 328 328 329 329 329 330 330 331 330 328 326 324 322 319 316 310 305 303 301 298 295 291 286 284 285 293 298 303 309 315 321 325 330 334